Temperature
21 21 21 21 19 18 19 20 20 20 20 19 19 19 18 18 18 17 16 17 17 18 17 17 17 17 17 18 18 17 17 17 17 17 17 17 17 17 17 17 16 16 17 17 17 17 17 17 17
21 21 21 20 18 18 19 20 20 20 20 20 19 19 18 17 17 17 17 17 18 18 17 17 17 17 17 17 17 17 17 17 17 17 17 17 16 16 16 16 16 16 16 16 16 16 17 17 17
21 21 21 18 19 19 19 20 19 20 20 20 19 18 18 17 17 17 17 17 18 17 17 17 17 17 17 17 17 17 17 17 17 16 16 16 16 16 16 16 16 16 16 16 16 17 17 17 17
21 21 20 18 19 20 20 19 20 20 20 20 19 18 18 18 17 17 17 18 18 17 17 17 17 17 17 17 17 17 17 17 17 16 16 16 16 16 16 16 16 16 16 16 16 16 17 17 17
21 21 18 19 20 20 20 20 20 20 20 19 18 17 17 18 18 18 18 18 18 18 17 17 17 17 17 17 17 17 17 16 16 16 16 16 16 16 16 16 16 16 16 16 16 16 16 16 17
21 19 18 18 19 20 20 20 20 19 19 19 18 17 17 17 18 18 18 18 18 18 17 17 17 17 17 17 17 17 16 16 16 16 16 16 16 16 16 16 16 16 16 16 16 16 16 16 16
20 17 18 19 19 19 20 20 20 19 19 19 18 17 17 17 18 18 18 18 18 18 17 17 17 17 17 17 17 16 16 16 16 16 16 16 16 16 16 16 16 16 16 16 16 16 16 16 16
21 18 19 19 19 19 20 20 20 19 19 19 19 18 17 17 18 18 18 18 18 17 17 17 17 17 17 17 16 16 16 16 16 16 16 16 16 16 16 16 16 16 16 16 16 16 16 16 16
21 17 18 19 19 19 20 20 19 19 19 19 19 19 18 18 18 18 18 17 17 17 17 17 17 17 17 17 16 16 16 16 16 16 16 16 16 16 16 16 16 16 16 16 16 16 16 16 16
20 17 19 19 19 19 20 20 19 19 19 18 18 18 18 18 18 18 18 18 18 18 17 17 17 17 17 17 16 16 16 16 16 16 16 16 16 16 16 16 16 16 16 16 16 16 16 16 16
19 18 19 19 20 20 20 19 19 19 18 18 18 18 18 18 18 18 18 18 18 18 18 17 17 17 17 17 17 16 16 16 16 16 16 16 16 16 16 16 16 16 16 16 16 16 16 16 16
19 19 20 20 20 20 20 19 19 19 19 19 19 19 18 18 18 18 18 18 18 18 18 17 17 17 17 17 17 16 16 16 16 16 16 16 16 16 16 16 16 16 16 16 16 16 16 16 16
19 19 20 20 20 20 20 19 19 19 19 19 19 19 19 19 19 18 18 18 18 18 18 17 17 17 17 17 17 16 16 16 16 16 16 16 16 16 16 16 16 16 16 16 16 16 16 16 16
19 19 19 19 19 19 19 19 19 18 19 19 19 19 19 19 19 18 18 18 18 18 18 18 17 17 17 17 17 16 16 16 16 16 16 16 16 16 16 16 16 16 16 16 16 16 16 16 16
19 19 19 19 19 19 19 18 18 19 19 19 19 19 19 19 19 19 18 18 18 18 18 18 17 17 17 17 17 16 16 16 16 16 16 16 16 16 16 16 15 16 16 16 16 16 16 16 16
19 18 18 19 19 19 19 17 18 19 19 19 19 19 19 19 19 19 19 18 18 18 18 18 17 17 17 17 17 16 16 16 16 16 16 16 16 16 16 16 15 15 16 16 16 16 16 16 16
17 17 18 18 19 19 18 18 18 19 19 19 19 19 19 19 19 19 19 19 18 18 18 18 17 17 17 17 17 16 16 16 16 16 16 16 16 16 16 15 15 15 15 16 16 16 16 16 16
17 17 18 18 18 19 18 18 18 19 19 19 19 19 19 19 19 19 19 19 18 18 18 18 17 17 17 17 17 16 16 16 16 16 16 16 16 16 16 15 15 15 16 16 16 15 15 15 15
18 18 17 18 18 18 18 18 18 19 19 19 19 19 19 19 19 19 19 19 18 18 18 18 17 17 17 17 17 16 16 16 16 16 16 16 15 15 15 15 15 15 15 15 15 15 16 15 15
18 18 17 18 18 19 18 18 18 18 19 19 19 19 19 19 19 19 19 19 18 18 18 18 17 17 17 17 17 16 16 16 16 15 15 15 15 15 15 15 15 15 15 15 15 15 15 15 15
18 18 18 17 18 18 18 18 18 18 19 19 19 19 19 19 19 19 19 19 19 18 18 18 18 17 17 17 17 16 16 16 16 15 15 15 15 15 15 15 15 15 15 15 15 15 15 15 15
18 19 19 18 17 17 18 17 17 17 18 18 19 19 19 19 19 19 19 19 19 18 18 18 18 17 17 17 17 16 16 16 16 16 15 15 15 15 15 15 15 15 15 15 15 15 15 15 15
19 20 19 18 17 17 17 17 17 17 17 17 18 19 19 19 19 19 19 19 19 18 18 18 18 17 17 17 17 16 16 16 16 15 15 15 15 15 15 15 15 15 15 15 15 15 15 15 15
20 19 18 17 16 17 17 17 17 17 18 18 18 19 19 20 19 19 19 19 19 18 18 18 18 17 17 17 17 16 16 16 16 16 15 15 15 15 15 15 14 14 14 14 14 14 14 14 14
19 17 17 17 16 17 18 17 17 18 19 19 19 19 20 20 20 19 19 19 19 18 18 18 18 17 17 17 17 16 16 16 16 16 15 15 15 15 14 14 14 14 14 14 14 14 14 14 14
19 18 17 17 17 17 18 17 18 20 20 20 20 20 20 20 20 20 19 19 19 19 18 18 18 17 17 17 17 16 16 16 16 16 15 15 15 15 14 14 14 14 14 14 14 14 14 14 14
19 18 17 17 18 17 17 18 19 20 19 19 20 20 20 20 20 20 19 19 19 19 18 18 18 18 17 17 17 17 16 16 16 16 15 15 15 15 14 14 14 14 14 14 14 14 14 14 14
20 18 16 17 17 17 18 19 19 20 19 19 19 19 20 20 20 20 20 19 19 19 19 18 18 18 17 17 17 16 16 16 16 16 16 15 15 15 14 14 14 14 14 14 14 14 14 14 14
20 19 18 16 17 17 18 18 20 20 19 19 19 20 20 20 20 20 20 20 19 19 19 18 18 18 17 17 17 17 16 16 16 16 16 15 15 15 15 14 14 14 14 14 14 14 13 13 13
20 20 18 17 17 17 17 18 21 20 20 20 20 20 20 20 21 20 20 19 19 19 18 18 18 18 17 17 17 17 16 16 16 16 15 15 15 15 15 14 14 14 14 14 14 13 13 13 13
Wind_Speed
7 5 2 3 5 5 3 2 2 3 4 5 9 9 9 7 6 8 4 8 9 7 8 11 12 13 13 14 14 14 14 13 13 13 13 12 12 11 11 11 10 10 10 10 9 9 8 8 8
4 2 3 4 4 4 2 1 4 4 6 6 8 9 8 8 7 9 6 8 9 9 9 11 13 13 13 13 13 13 13 13 12 12 12 11 11 11 10 10 9 9 9 9 8 8 7 7 7
3 0 3 4 3 3 3 2 6 6 5 4 5 6 5 5 6 5 8 10 9 9 10 12 13 13 13 13 13 13 12 12 11 11 11 10 10 10 9 9 9 9 8 8 7 7 6 7 7
2 4 4 5 4 2 5 5 7 7 6 6 7 6 4 3 4 8 11 11 10 8 10 12 13 13 13 13 12 12 11 11 10 10 9 9 9 9 8 8 8 7 7 7 6 6 6 6 6
3 4 5 4 3 2 3 4 5 6 4 6 9 7 5 3 11 14 12 11 10 7 9 11 13 12 12 12 11 11 10 9 9 9 8 7 7 7 7 7 7 6 6 5 5 5 5 6 6
4 4 5 3 3 3 3 6 9 11 10 9 9 8 4 5 11 11 11 10 9 8 8 10 12 12 11 11 10 9 8 8 7 6 6 5 5 5 5 5 5 5 4 4 4 5 5 5 6
4 4 4 4 5 4 4 4 6 8 8 5 6 7 5 5 8 11 11 9 8 8 7 7 9 10 10 9 8 8 6 5 5 4 4 3 3 3 3 3 3 3 3 4 5 5 6 6 6
4 4 3 3 5 3 3 3 5 8 7 7 5 7 7 7 9 10 9 8 7 6 5 6 6 7 7 6 6 5 4 4 3 3 3 3 2 1 1 2 3 3 4 4 5 6 6 6 6
4 5 3 3 5 4 5 6 5 5 7 4 4 6 9 11 11 10 8 6 5 6 4 5 5 5 5 4 4 3 3 3 3 3 4 3 3 2 2 2 3 4 4 5 6 6 6 7 7
4 4 2 2 4 6 7 8 5 6 9 7 9 9 10 10 11 10 9 7 6 6 5 4 5 5 4 3 3 2 3 4 4 4 4 4 3 3 3 4 5 6 6 7 7 7 6 6 6
3 4 4 3 5 6 8 6 4 9 8 9 13 12 10 9 9 8 7 7 6 6 6 5 4 5 4 3 3 3 3 4 5 5 5 6 6 5 5 5 6 7 7 7 8 8 7 5 4
5 3 5 5 5 5 7 6 6 5 7 9 11 12 10 10 9 9 8 7 6 6 5 5 4 4 4 4 4 4 3 5 5 6 7 6 5 4 4 4 6 6 6 6 6 5 6 6 6
5 4 5 7 9 8 10 9 7 4 6 9 10 10 10 9 8 7 7 7 7 6 5 4 4 5 5 4 4 5 4 5 6 8 8 8 5 3 4 4 6 6 6 6 5 5 5 5 6
4 6 7 7 9 7 10 7 6 5 7 9 9 9 10 10 9 8 7 6 6 6 5 5 6 5 6 5 4 4 6 7 9 9 9 10 7 5 4 4 5 6 7 6 5 5 4 4 4
6 8 7 4 6 5 9 6 4 6 8 9 9 9 9 9 9 9 8 7 7 6 6 6 6 6 6 6 5 6 6 8 8 8 10 10 9 7 6 4 5 6 8 8 7 6 5 4 4
4 4 3 1 4 4 7 6 3 6 9 8 8 8 8 8 8 8 8 7 7 7 6 6 7 7 6 5 6 6 7 8 7 9 10 10 10 9 7 4 4 7 9 6 4 4 4 4 4
3 3 3 1 1 3 5 6 4 5 9 8 7 7 8 7 7 7 8 8 7 7 7 6 6 7 6 6 6 6 7 7 7 9 9 10 10 10 9 5 5 8 7 5 4 4 3 4 4
4 3 2 1 1 3 5 5 5 5 8 8 7 7 8 8 7 7 8 7 7 7 7 7 6 6 6 5 5 4 5 5 7 8 8 10 10 10 9 6 7 8 5 6 5 4 5 3 3
6 5 4 1 1 2 5 5 6 6 6 8 7 7 8 8 6 7 8 8 7 6 7 6 6 5 5 4 4 3 3 2 3 5 8 10 10 10 9 6 6 6 5 5 5 4 5 5 3
7 6 3 2 0 2 3 2 4 5 7 9 10 9 9 7 6 6 7 7 7 7 7 6 6 5 4 3 3 3 3 2 2 3 7 10 10 9 8 6 4 4 5 7 7 5 3 4 5
5 6 6 5 1 2 4 1 3 3 4 6 9 9 9 11 10 9 8 7 7 7 7 7 5 5 5 5 4 4 4 3 3 3 3 5 9 10 9 7 5 5 5 5 5 5 5 4 5
2 6 8 7 4 1 2 2 6 6 5 8 9 10 10 10 9 8 9 8 7 7 7 7 6 5 5 6 6 6 4 3 1 1 1 3 7 7 8 8 7 5 4 5 5 5 4 4 4
4 6 6 5 3 1 1 2 6 4 7 11 12 12 12 11 11 10 9 9 8 7 7 7 6 5 5 5 6 6 4 3 1 1 2 3 4 5 6 7 7 5 4 4 5 5 6 4 4
6 6 5 4 3 0 4 4 6 6 11 10 11 12 12 12 11 9 8 8 6 6 6 7 7 5 5 6 6 7 7 5 4 3 2 1 2 2 4 5 5 5 4 4 4 4 6 5 5
4 5 3 2 2 4 4 4 8 9 10 13 13 14 12 11 11 10 10 9 8 8 7 7 7 6 5 6 6 6 7 7 6 4 3 2 1 1 1 2 3 3 4 5 4 4 5 4 5
3 6 5 4 3 3 1 4 7 7 8 10 10 11 11 12 11 12 12 10 10 9 9 8 8 6 6 6 6 5 6 5 4 4 4 4 3 2 2 3 3 4 5 5 5 3 3 4 5
4 3 5 4 1 1 3 5 6 2 5 8 9 10 12 13 13 12 11 10 10 10 10 9 9 7 6 6 6 5 5 5 5 4 4 3 2 2 3 3 3 3 4 5 4 4 3 4 4
5 6 5 3 2 1 3 3 4 4 6 8 10 11 11 12 12 12 11 11 10 10 9 8 9 8 6 6 6 5 5 5 5 5 4 4 3 3 3 3 3 3 3 4 4 3 3 4 3
2 2 3 3 3 3 2 6 5 9 9 11 11 12 12 13 13 12 11 11 10 9 9 8 8 7 6 6 5 6 5 5 5 5 5 4 3 3 4 3 3 3 3 3 4 3 3 4 4
5 5 6 4 3 3 3 6 6 7 8 9 10 10 11 12 11 11 11 10 9 9 9 9 8 7 7 6 6 6 6 5 5 5 5 5 4 4 4 4 4 3 3 3 3 3 3 4 3
Wind_Direction
311 320 68 61 58 59 61 22 104 75 58 53 71 80 80 61 85 117 146 130 120 114 108 105 102 100 97 94 91 89 88 86 84 82 80 78 77 73 71 69 66 64 62 61 60 60 58 57 53
318 337 56 60 80 81 69 81 88 86 130 119 75 72 75 71 80 108 128 128 122 117 112 110 106 101 98 95 93 91 89 87 85 82 79 78 76 74 71 68 65 62 59 57 54 53 53 49 45
309 93 78 69 88 128 139 136 108 90 105 97 81 56 64 88 98 117 140 131 118 113 113 112 107 103 99 97 94 92 91 89 86 82 77 75 74 72 69 67 65 63 59 55 50 47 43 40 35
42 44 56 71 91 131 145 144 122 106 70 63 96 71 59 75 110 131 133 126 117 112 115 115 110 106 103 98 95 93 91 89 86 83 81 77 73 71 70 68 66 64 59 53 47 41 34 29 27
65 73 64 66 77 77 106 128 106 95 81 77 90 92 71 59 117 129 130 127 123 118 120 119 115 112 108 104 101 98 96 94 90 86 82 79 76 73 71 71 68 65 58 47 37 30 26 23 22
55 67 85 93 97 83 82 98 94 93 105 97 92 96 82 114 124 133 131 129 131 133 132 127 124 121 117 114 111 107 102 97 91 86 82 80 77 75 69 68 69 64 52 35 18 9 8 11 13
98 89 113 122 110 99 119 105 105 117 113 103 111 99 115 131 138 138 135 133 136 138 135 134 132 128 125 121 116 114 110 101 91 81 73 75 75 77 71 56 58 53 35 15 1 354 356 358 359
120 99 91 104 115 121 130 97 102 109 105 120 113 122 146 158 143 132 130 131 136 142 146 148 143 136 131 129 124 118 108 93 77 63 53 48 46 59 38 14 18 22 17 6 357 348 345 343 345
90 81 106 138 138 140 117 102 85 74 99 90 86 122 144 144 131 124 122 126 143 155 163 158 154 157 158 157 138 118 86 55 36 27 41 33 6 354 340 338 355 355 355 353 350 343 334 337 347
82 113 166 168 141 131 118 110 112 97 96 97 102 115 128 130 130 133 138 144 150 158 172 167 166 173 178 167 132 101 58 35 28 18 30 36 19 354 360 353 5 -0 357 357 0 3 354 348 349
98 134 135 97 107 110 110 99 93 116 119 142 142 145 139 133 133 136 139 142 148 150 154 167 168 162 157 134 110 91 59 38 29 24 43 53 46 31 27 14 5 5 7 10 14 17 16 14 11
97 92 120 116 106 99 111 112 98 116 153 156 149 145 139 140 143 144 142 137 129 128 142 149 145 132 131 117 104 96 73 52 40 38 49 64 59 43 31 14 9 10 11 18 22 25 28 35 41
79 106 97 102 96 89 102 105 107 115 145 143 138 134 141 144 143 144 138 129 121 122 134 136 124 116 113 100 92 85 71 62 52 46 46 63 66 47 34 23 20 18 22 25 25 31 36 34 39
114 104 102 102 96 95 107 108 103 145 148 139 136 138 146 145 144 138 133 128 123 122 126 119 103 105 101 94 92 82 73 65 57 51 51 59 62 55 42 27 23 19 24 34 40 39 39 33 40
99 97 83 89 102 112 102 78 119 160 148 141 139 140 141 144 141 144 145 138 135 127 120 116 111 100 97 98 98 89 78 70 58 52 56 58 58 57 53 40 27 18 29 39 44 39 40 39 40
67 76 91 79 121 129 114 135 176 155 142 138 139 139 134 138 143 146 141 140 136 123 119 117 111 99 94 96 98 92 83 73 60 53 54 54 55 59 58 46 29 26 35 36 37 34 38 32 33
47 111 132 152 161 126 124 157 193 159 144 145 146 141 133 130 136 144 143 141 137 129 122 115 109 106 102 96 94 87 81 73 63 57 54 53 55 59 62 52 34 37 39 31 35 38 40 37 28
161 138 136 157 274 126 134 165 178 175 157 158 159 151 143 143 159 158 148 142 134 128 124 120 113 113 107 94 81 65 57 54 55 56 53 55 56 60 62 57 40 42 39 30 31 39 36 41 34
149 129 123 178 241 131 150 167 184 178 166 165 171 169 161 164 174 155 146 142 133 125 123 126 123 124 117 105 99 89 71 50 43 52 57 57 59 63 63 57 45 44 45 35 33 40 40 30 29
131 123 124 116 151 128 140 190 204 190 190 183 183 180 171 167 167 157 148 146 147 145 139 135 138 136 132 131 132 128 119 90 63 47 50 52 58 63 68 63 51 45 48 39 35 40 50 32 33
143 152 158 156 106 56 108 344 238 225 199 188 186 181 179 177 177 169 158 156 152 153 154 153 152 142 134 128 109 90 68 51 38 34 30 39 62 69 69 64 61 53 57 52 42 46 63 54 28
163 170 148 146 129 203 160 214 253 218 209 201 194 187 189 186 182 175 165 163 164 165 156 149 147 143 136 127 126 130 129 133 171 160 65 43 57 68 74 69 62 57 54 52 47 55 60 72 48
168 155 142 145 135 95 200 187 269 202 212 213 203 196 194 190 186 182 175 171 167 159 152 148 143 140 135 130 136 132 130 144 145 110 78 50 38 56 71 73 67 59 56 56 56 57 57 65 73
119 94 74 63 79 269 215 187 259 214 211 205 201 195 192 189 185 179 175 162 155 150 148 147 144 147 143 137 138 141 143 141 130 126 111 64 40 34 57 71 67 66 63 60 64 66 67 66 71
102 104 81 32 356 259 215 199 248 231 211 200 196 195 191 185 178 174 173 169 163 160 159 155 150 153 152 145 148 155 154 151 153 159 155 141 113 84 49 70 69 68 70 72 74 71 65 64 73
175 138 150 170 219 279 238 233 260 248 203 190 187 185 181 182 179 179 181 177 170 168 166 162 159 162 164 160 163 165 158 152 160 168 164 163 169 176 151 112 91 81 79 76 78 75 70 69 73
140 159 169 141 198 272 269 275 305 17 150 168 171 173 180 183 181 180 180 179 175 175 176 173 167 165 170 170 165 168 166 156 161 168 166 169 174 164 130 115 100 85 82 79 82 79 73 75 73
155 151 107 125 154 285 297 264 244 220 191 183 179 183 187 184 181 180 182 183 183 180 178 173 169 170 174 172 174 174 174 167 164 158 163 167 165 142 128 121 116 101 86 80 80 83 77 79 68
151 137 131 137 164 165 257 275 237 207 195 186 188 188 185 184 185 185 185 185 182 176 173 174 174 169 171 173 174 165 170 165 159 163 171 170 160 149 142 148 133 118 104 91 90 96 89 87 73
178 181 156 156 224 184 189 269 281 197 183 177 183 186 185 183 183 181 179 176 177 178 178 180 180 178 181 179 172 170 168 162 164 174 177 167 160 158 158 150 135 128 120 112 114 117 104 105 94
Height
1512 1511 1510 1511 1514 1524 1527 1523 1518 1518 1519 1520 1519 1520 1523 1527 1531 1540 1539 1538 1539 1539 1539 1539 1539 1539 1539 1539 1539 1539 1539 1539 1538 1538 1538 1538 1537 1537 1536 1536 1535 1535 1534 1534 1534 1534 1533 1533 1533
1511 1511 1512 1511 1520 1533 1531 1522 1520 1519 1520 1520 1521 1523 1525 1530 1532 1535 1537 1539 1539 1540 1540 1540 1540 1540 1540 1540 1540 1540 1540 1540 1539 1539 1539 1538 1538 1537 1537 1536 1536 1535 1535 1534 1534 1534 1534 1533 1533
1511 1511 1512 1514 1523 1530 1529 1522 1520 1520 1521 1520 1524 1526 1529 1533 1535 1536 1538 1540 1540 1541 1541 1542 1542 1541 1541 1541 1541 1541 1541 1541 1540 1540 1540 1540 1539 1538 1538 1537 1536 1536 1535 1535 1534 1534 1534 1534 1533
1511 1512 1513 1520 1524 1522 1520 1520 1520 1521 1522 1523 1524 1529 1532 1535 1536 1538 1540 1541 1542 1542 1543 1543 1543 1543 1542 1542 1542 1542 1542 1542 1541 1541 1541 1540 1540 1539 1538 1538 1537 1536 1536 1535 1535 1534 1534 1534 1534
1511 1512 1518 1525 1524 1521 1519 1520 1520 1520 1523 1526 1525 1531 1535 1537 1538 1540 1542 1543 1544 1544 1544 1544 1544 1544 1544 1544 1543 1543 1543 1543 1543 1543 1542 1542 1541 1540 1540 1539 1538 1537 1537 1536 1536 1535 1535 1534 1534
1512 1514 1526 1531 1526 1522 1522 1522 1522 1523 1526 1528 1530 1533 1538 1540 1540 1542 1544 1545 1546 1546 1546 1546 1546 1546 1546 1545 1545 1545 1545 1545 1545 1544 1544 1543 1542 1542 1541 1540 1539 1538 1538 1537 1537 1536 1535 1535 1535
1514 1518 1526 1528 1528 1526 1524 1523 1523 1525 1527 1530 1531 1534 1539 1542 1543 1544 1546 1546 1547 1547 1548 1548 1548 1548 1548 1548 1547 1547 1547 1547 1546 1546 1545 1545 1544 1543 1542 1541 1540 1539 1539 1538 1537 1537 1536 1536 1536
1513 1518 1524 1527 1528 1527 1524 1525 1526 1527 1529 1532 1532 1535 1539 1542 1544 1546 1547 1548 1549 1549 1550 1550 1550 1550 1550 1550 1550 1549 1549 1549 1548 1547 1547 1546 1545 1544 1543 1543 1542 1541 1540 1539 1538 1538 1537 1537 1536
1514 1523 1529 1527 1527 1527 1525 1526 1529 1530 1530 1532 1533 1535 1539 1542 1545 1547 1548 1549 1550 1551 1551 1552 1552 1552 1552 1552 1551 1551 1551 1550 1549 1549 1548 1547 1546 1546 1545 1544 1543 1542 1541 1540 1539 1538 1538 1537 1537
1515 1526 1525 1522 1522 1524 1525 1526 1529 1532 1533 1534 1536 1539 1541 1544 1546 1548 1549 1550 1551 1552 1553 1553 1553 1553 1553 1553 1553 1552 1552 1551 1551 1550 1549 1548 1548 1547 1546 1545 1544 1543 1542 1541 1540 1539 1539 1538 1538
1516 1521 1521 1522 1522 1524 1526 1528 1530 1532 1536 1536 1537 1540 1543 1545 1547 1549 1550 1551 1552 1553 1554 1554 1555 1555 1555 1555 1554 1554 1553 1552 1552 1551 1550 1549 1549 1548 1547 1546 1545 1544 1543 1542 1541 1540 1540 1539 1539
1517 1520 1520 1523 1523 1525 1527 1529 1532 1533 1536 1537 1539 1541 1544 1546 1548 1550 1552 1553 1553 1554 1555 1556 1556 1556 1556 1556 1556 1555 1554 1554 1553 1552 1551 1551 1550 1549 1548 1547 1546 1545 1544 1543 1542 1541 1541 1540 1540
1519 1522 1523 1524 1525 1526 1529 1531 1533 1536 1538 1540 1541 1543 1545 1547 1550 1552 1553 1554 1554 1555 1556 1557 1557 1557 1557 1557 1557 1556 1556 1555 1554 1553 1552 1552 1551 1550 1549 1548 1547 1546 1545 1544 1543 1542 1542 1541 1541
1522 1523 1525 1527 1528 1530 1532 1535 1536 1539 1540 1541 1543 1545 1547 1548 1550 1552 1554 1555 1555 1556 1557 1558 1559 1559 1558 1558 1558 1558 1557 1556 1555 1554 1554 1553 1552 1551 1550 1549 1547 1546 1545 1545 1544 1543 1543 1542 1542
1523 1525 1529 1530 1530 1533 1534 1539 1539 1540 1541 1542 1544 1546 1547 1549 1551 1553 1554 1555 1556 1557 1558 1559 1560 1560 1559 1559 1559 1558 1558 1557 1556 1556 1555 1554 1553 1552 1551 1550 1548 1547 1546 1546 1545 1544 1544 1543 1543
1526 1531 1537 1533 1532 1534 1538 1547 1541 1541 1542 1543 1545 1546 1548 1550 1552 1553 1555 1556 1557 1558 1559 1560 1560 1561 1560 1560 1560 1559 1559 1558 1557 1557 1556 1555 1554 1553 1552 1550 1549 1548 1547 1546 1545 1545 1544 1544 1544
1534 1540 1540 1537 1533 1533 1538 1544 1541 1541 1542 1544 1545 1547 1548 1550 1552 1554 1555 1557 1558 1559 1560 1561 1561 1561 1561 1561 1561 1560 1560 1559 1558 1557 1557 1555 1554 1553 1552 1551 1550 1549 1548 1547 1546 1546 1545 1545 1546
1540 1540 1540 1540 1535 1535 1539 1541 1540 1541 1542 1544 1546 1547 1549 1550 1553 1554 1556 1557 1558 1559 1560 1561 1561 1562 1562 1562 1561 1561 1560 1560 1559 1558 1558 1557 1555 1554 1553 1552 1551 1550 1548 1548 1547 1546 1546 1546 1547
1532 1537 1541 1540 1536 1537 1539 1541 1540 1541 1542 1544 1546 1547 1548 1550 1553 1554 1556 1557 1558 1559 1560 1561 1562 1562 1562 1562 1562 1561 1561 1561 1560 1559 1559 1558 1556 1555 1554 1553 1551 1550 1549 1549 1548 1547 1547 1547 1547
1531 1538 1541 1540 1537 1538 1541 1542 1540 1540 1541 1542 1544 1546 1547 1550 1552 1554 1555 1556 1558 1559 1560 1561 1562 1562 1562 1562 1562 1562 1561 1561 1561 1560 1559 1558 1557 1556 1555 1554 1552 1551 1550 1550 1549 1548 1548 1548 1548
1533 1537 1539 1541 1539 1538 1542 1546 1542 1540 1540 1542 1543 1544 1546 1548 1550 1552 1554 1555 1557 1558 1560 1561 1561 1562 1562 1562 1562 1562 1562 1561 1561 1560 1560 1559 1558 1557 1556 1555 1554 1553 1552 1551 1550 1550 1549 1549 1549
1536 1530 1533 1538 1545 1550 1546 1557 1545 1540 1539 1539 1540 1542 1544 1546 1548 1550 1552 1554 1556 1557 1559 1560 1561 1562 1562 1562 1562 1562 1562 1561 1561 1560 1560 1559 1559 1558 1557 1556 1555 1554 1553 1552 1552 1551 1551 1550 1550
1530 1528 1533 1537 1544 1550 1548 1554 1547 1538 1540 1537 1536 1538 1541 1543 1546 1548 1550 1552 1554 1556 1558 1559 1560 1561 1561 1562 1562 1562 1561 1561 1561 1560 1560 1560 1559 1559 1558 1557 1556 1555 1554 1554 1553 1552 1552 1551 1551
1527 1533 1538 1542 1548 1557 1549 1553 1549 1538 1531 1530 1532 1534 1537 1540 1543 1546 1549 1551 1553 1555 1557 1558 1559 1560 1560 1561 1561 1561 1561 1561 1561 1560 1560 1560 1559 1559 1558 1558 1557 1556 1556 1555 1555 1554 1553 1553 1552
1530 1544 1557 1559 1562 1558 1543 1546 1541 1524 1520 1522 1525 1529 1533 1537 1540 1543 1546 1549 1551 1553 1555 1556 1557 1558 1559 1559 1560 1560 1560 1560 1560 1560 1560 1559 1559 1559 1558 1558 1558 1557 1557 1556 1556 1555 1555 1554 1554
1531 1539 1556 1563 1563 1555 1544 1545 1529 1514 1514 1517 1521 1526 1530 1534 1537 1540 1543 1546 1548 1551 1553 1554 1555 1556 1557 1558 1558 1559 1559 1559 1559 1559 1559 1559 1559 1559 1559 1559 1558 1558 1558 1557 1557 1557 1556 1556 1555
1532 1537 1538 1548 1550 1555 1549 1537 1522 1513 1514 1517 1520 1524 1527 1530 1534 1537 1541 1544 1546 1548 1550 1552 1553 1555 1556 1556 1557 1558 1558 1558 1558 1558 1558 1559 1559 1559 1559 1559 1559 1559 1558 1558 1558 1557 1557 1557 1557
1525 1530 1541 1548 1556 1560 1548 1539 1533 1519 1517 1517 1519 1521 1524 1528 1532 1535 1538 1541 1544 1546 1548 1550 1552 1553 1554 1555 1555 1556 1557 1557 1557 1558 1558 1558 1558 1558 1559 1559 1559 1559 1559 1559 1559 1558 1558 1558 1558
1528 1530 1536 1544 1547 1556 1556 1544 1515 1513 1512 1514 1516 1518 1521 1525 1528 1532 1535 1539 1541 1544 1546 1548 1549 1551 1552 1553 1554 1554 1555 1556 1556 1556 1556 1557 1557 1558 1558 1559 1559 1559 1559 1559 1559 1559 1559 1559 1558
1520 1524 1532 1545 1546 1545 1550 1540 1507 1507 1508 1511 1514 1517 1520 1523 1526 1529 1533 1536 1539 1541 1543 1545 1547 1549 1550 1552 1552 1553 1554 1554 1554 1555 1555 1556 1556 1557 1557 1558 1558 1559 1559 1559 1559 1559 1559 1559 1559